Regional Weather Roundup
Issued by NWS

Home | Current Version | Previous Version | Graphics & Text | Print | Product List | Glossary On
Versions: 1 2 3 4 5 6 7 8 9 10 11 12 13 14 15 16 17 18 19 20 21 22 23 24 25 26 27 28 29 30 31 32 33 34 35 36 37 38 39 40 41 42 43 44 45 46 47 48 49 50
000
ASUS43 KIND 230909
RWRIN

WEATHER ROUNDUP FOR INDIANA
NATIONAL WEATHER SERVICE INDIANAPOLIS IN
500 AM EDT SAT SEP 23 2017

NOTE: "FAIR" INDICATES FEW OR NO CLOUDS BELOW 12,000 FEET WITH NO
SIGNIFICANT WEATHER AND/OR OBSTRUCTIONS TO VISIBILITY.

* - STATION DOES NOT REPORT WEATHER SUCH AS PRECIPITATION OR FOG.

+ - STATION NOT QUALITY CONTROLLED BY THE NATIONAL WEATHER SERVICE.
    USE DATA WITH CAUTION...ESPECIALLY DEWPOINT AND RELATIVE
    HUMIDITY OBSERVATIONS.

INZ001>003-010>013-019-020-231000-
NORTHWEST INDIANA

CITY           SKY/WX    TMP DP  RH WIND       PRES   REMARKS
GARY /AIRPORT/ CLEAR     67  66  97 CALM      30.05R
KNOX *+        CLEAR     63  63 100 CALM      30.05S
LA PORTE +     CLEAR     65  64  97 CALM      30.07S
MICHIGAN CITY+ CLEAR     68  68 100 SE3       30.05S
MONTICELLO +   CLEAR     67  66  96 CALM      30.05S
RENSSELAER +   CLEAR     66  63  88 E5        30.06R
VALPARAISO     CLEAR     69  67  93 E3        30.06S FOG

$$

LMZ046-743>745-231000-
SOUTHERN LAKE MICHIGAN

STATION/POSITION TIME  TEMP    WIND        PRES    WAVE
                       AIR SEA DIR/SP/G            HT
                 (UTC) (F)     (DEG/KT/KT) (MB)    (FT)
BURNS HARBOR     0840   77     170/  4/  8 1017.3F
MICHIGAN CITY    0840   76     150/  7/  9   N/A
5NW MICH CITY    0900   73 71  220/  2/  4   N/A     0

$$

INZ004-005-014>016-021>024-231000-
NORTH CENTRAL INDIANA

CITY           SKY/WX    TMP DP  RH WIND       PRES   REMARKS
GOSHEN         CLEAR     69  65  86 CALM      30.07S
LOGANSPORT +   CLEAR     63  63 100 CALM      30.07S FOG
PERU/GRISSOM   CLEAR     69  69 100 SE3       30.06R
SOUTH BEND     CLEAR     68  66  93 CALM      30.07R
WARSAW +       CLEAR     68  68 100 CALM      30.07S FOG

$$

INZ006>009-017-018-025>027-231000-
NORTHEAST INDIANA

CITY           SKY/WX    TMP DP  RH WIND       PRES   REMARKS
AUBURN +         N/A     64  61  88 CALM      30.09R FOG
FORT WAYNE     CLEAR     65  63  93 CALM      30.08S
HUNTINGTON +   CLEAR     67  65  96 CALM      30.07S
KENDALLVILLE + CLEAR     65  64  99 S3        30.09S FOG

$$

INZ028-029-035-036-043>045-051>053-231000-
WEST CENTRAL INDIANA

CITY           SKY/WX    TMP DP  RH WIND       PRES   REMARKS
CRAWFORDSVL +  CLEAR     63  63 100 CALM      30.06S
GREENCASTLE +  CLEAR     64  64 100 CALM      30.07R
LAFAYETTE      CLEAR     67  67 100 CALM      30.05R
TERRE HAUTE    CLEAR     66  64  93 CALM      30.05R

$$

INZ030>032-037>040-046>048-054>057-064-065-231000-
CENTRAL INDIANA

CITY           SKY/WX    TMP DP  RH WIND       PRES   REMARKS
CP ATTERBURY + CLEAR     63  61  94 CALM      30.08R FOG
FISHERS *+     CLEAR     64  64 100 CALM      30.07
FRANKFORT +    CLOUDY    67  65  94 CALM      30.08S
GREENWOOD *+   CLEAR     71  70  97 CALM      30.08R
INDIANAPOLIS   PTCLDY    71  66  84 SE3       30.06S
-EAGLE CREEK   PTCLDY    69  67  93 CALM      30.06S FOG
KOKOMO +       CLEAR     65  64  97 CALM      30.07S FOG
MT COMFORT *+  CLEAR     64  63  94 CALM      30.08R
SHELBYVILLE    CLEAR     66  62  87 E3        30.06S
ZIONSVILLE +   CLEAR     63  63 100 CALM      30.08S

$$

INZ033-034-041-042-049-050-058-059-231000-
EAST CENTRAL INDIANA

CITY           SKY/WX    TMP DP  RH WIND       PRES   REMARKS
MUNCIE         CLEAR     66  63  90 CALM      30.08R
RICHMOND +     CLEAR     63  63 100 CALM      30.10S FOG

$$

INZ060-061-067>069-081>083-085>088-231000-
SOUTHWEST INDIANA

CITY           SKY/WX    TMP DP  RH WIND       PRES   REMARKS
EVANSVILLE     CLEAR     68  66  93 CALM      30.03S
HUNTINGBURG +  FOG       66  64  94 CALM      30.05R VSB 3/4
WASHINGTON +   PTCLDY    65  63  94 CALM      30.04S FOG

$$

INZ062-063-066-070>080-084-089>092-231000-
SOUTH CENTRAL AND SOUTHEAST INDIANA

CITY           SKY/WX    TMP DP  RH WIND       PRES   REMARKS
BEDFORD +      CLEAR     66  64  94 CALM      30.06R FOG
BLOOMINGTON    FOG       65  62  90 CALM      30.06S VSB 3/4
MADISON *+     CLEAR     63  63 100 CALM      30.09R
NORTH VERNON + CLEAR     63  61  94 CALM      30.08R FOG
SEYMOUR +      CLEAR     64  64 100 CALM      30.06S FOG

$$




USA.gov is the U.S. government's official web portal to all federal, state and local government web resources and services.